FW0788 Weather Reports


Display with metric or nautical units.
time (UTC)temp
F
wind
direction
speed
MPH
gust
MPH
rain 1hr
in
rain 24hr
in
rain mn
in
humidity
%
barometer
mb
20260510220034 47 219 0.0 0.0 0.00 0.00 0.00 95 1034.7
20260510214535 46 219 0.0 0.0 0.00 0.00 0.00 94 1034.5
20260510213029 46 219 0.0 0.0 0.00 0.00 0.00 94 1034.4
20260510211528 45 219 0.0 0.0 0.00 0.00 0.00 94 1034.2
20260510210026 45 219 0.0 0.0 0.00 0.00 0.00 94 1034.0
20260510204525 44 219 0.0 0.0 0.00 0.00 0.00 94 1033.8
20260510203024 44 219 0.0 0.0 0.00 0.00 0.00 93 1033.7
20260510201522 44 219 0.0 0.0 0.00 0.00 0.00 93 1033.6
20260510200027 44 219 0.0 0.0 0.00 0.00 0.00 93 1033.7
20260510194528 44 219 0.0 0.0 0.00 0.01 0.00 93 1033.5
20260510193017 45 219 0.0 0.0 0.00 0.01 0.00 93 1033.4
20260510191520 45 219 0.0 0.0 0.00 0.01 0.00 93 1033.2
20260510190017 45 219 0.0 0.0 0.00 0.01 0.00 93 1033.2
20260510184513 45 219 0.0 0.0 0.00 0.01 0.00 93 1033.1
20260510183012 44 219 0.0 0.0 0.00 0.01 0.00 93 1032.9
20260510181510 44 219 0.0 0.0 0.00 0.01 0.00 93 1032.8
20260510180009 44 219 0.0 0.0 0.00 0.01 0.00 93 1032.8
20260510174508 45 219 0.0 0.0 0.00 0.01 0.00 93 1032.8
20260510173008 45 219 0.0 0.0 0.00 0.01 0.00 92 1032.8
20260510171507 46 219 0.0 0.0 0.00 0.01 0.00 92 1032.8
20260510170006 46 219 0.0 0.0 0.00 0.01 0.00 92 1032.9
20260510164506 47 219 0.0 0.0 0.00 0.01 0.00 93 1033.0
20260510163004 47 219 0.0 0.0 0.00 0.01 0.00 93 1033.2
20260510161504 47 219 0.0 0.0 0.00 0.01 0.00 93 1033.2
20260510160002 47 219 0.0 0.0 0.00 0.01 0.00 93 1033.1
20260510154502 47 219 0.0 0.0 0.00 0.01 0.00 93 1033.1
20260510153001 47 219 0.0 0.0 0.00 0.01 0.00 93 1033.1
20260510151502 47 219 0.0 0.0 0.00 0.01 0.00 93 1033.1
20260510150001 47 219 0.0 0.0 0.00 0.01 0.00 93 1033.1
20260510144600 47 219 0.0 0.0 0.00 0.01 0.00 93 1033.2
20260510143109 47 219 0.0 0.0 0.00 0.01 0.00 93 1033.2
20260510141559 46 219 0.0 0.0 0.00 0.01 0.00 93 1033.1
20260510140054 46 219 0.0 0.0 0.00 0.01 0.00 93 1033.0
20260510134558 45 219 0.0 0.0 0.00 0.01 0.00 93 1033.0
20260510133049 45 219 0.0 0.0 0.00 0.01 0.00 93 1032.9
20260510131548 44 219 0.0 0.0 0.00 0.01 0.00 92 1032.9
20260510130045 45 219 0.0 0.0 0.00 0.01 0.00 91 1032.8
20260510124549 45 219 0.0 0.0 0.00 0.01 0.01 91 1032.8
20260510123044 46 219 0.0 0.0 0.00 0.01 0.01 91 1032.8
20260510121544 46 219 0.0 0.0 0.00 0.01 0.01 91 1032.8
20260510120042 46 219 0.0 0.0 0.00 0.01 0.01 91 1032.7
20260510114541 46 219 0.0 0.0 0.00 0.01 0.01 92 1032.6
20260510113041 46 219 0.0 0.0 0.00 0.01 0.01 91 1032.6
20260510111551 47 219 0.0 0.0 0.00 0.01 0.01 91 1032.5
20260510110039 47 219 0.0 0.0 0.00 0.01 0.01 90 1032.4
20260510104546 47 219 0.0 0.0 0.00 0.01 0.01 90 1032.3
20260510103036 48 219 0.0 0.0 0.00 0.01 0.01 91 1032.3
20260510101535 48 219 0.0 0.0 0.00 0.01 0.01 90 1032.1
20260510100034 49 219 0.0 0.0 0.00 0.01 0.01 90 1032.1
20260510094533 49 219 0.0 0.0 0.00 0.01 0.01 90 1031.9
20260510093038 50 219 0.0 0.0 0.00 0.01 0.01 90 1031.9
20260510091530 50 219 0.0 0.0 0.00 0.01 0.01 89 1031.7
20260510090031 51 219 0.0 0.0 0.00 0.01 0.01 88 1031.6
20260510084528 51 219 0.0 0.0 0.00 0.01 0.01 88 1031.4
20260510083034 52 219 0.0 0.0 0.00 0.01 0.01 87 1031.2
20260510081536 53 219 0.0 0.0 0.00 0.01 0.01 86 1030.9
20260510080029 54 219 0.0 0.0 0.00 0.01 0.01 84 1030.7
20260510074520 55 219 0.0 0.0 0.00 0.01 0.01 83 1030.6
20260510073018 57 219 0.0 0.0 0.00 0.01 0.01 82 1030.4
20260510071515 58 219 0.0 0.0 0.00 0.01 0.01 79 1030.2
20260510070021 60 219 0.0 0.0 0.00 0.01 0.01 76 1030.0
20260510064513 61 219 0.0 0.0 0.00 0.01 0.01 74 1030.0
20260510063013 61 181 0.0 0.0 0.00 0.01 0.01 72 1029.9
20260510061514 62 196 0.0 0.0 0.00 0.01 0.01 70 1029.8
20260510060021 62 265 0.0 0.0 0.00 0.01 0.01 69 1029.7
20260510054516 63 289 0.0 0.0 0.00 0.01 0.01 67 1029.6
20260510053013 64 292 0.0 0.0 0.00 0.01 0.01 68 1029.4
20260510051519 64 194 0.0 0.0 0.00 0.01 0.01 67 1029.3
20260510050014 64 210 0.0 0.0 0.00 0.01 0.01 67 1029.3
20260510044522 65 195 0.0 0.0 0.00 0.01 0.01 66 1029.1
20260510043010 65 286 0.0 0.0 0.00 0.01 0.01 67 1029.0
20260510041508 65 283 0.0 0.0 0.00 0.01 0.01 67 1029.0
20260510040008 65 205 0.0 0.0 0.00 0.01 0.01 66 1029.1
20260510034506 65 284 0.0 0.0 0.00 0.01 0.01 66 1029.2
20260510033005 66 257 0.0 0.0 0.00 0.01 0.01 66 1029.1
20260510031505 66 67 0.0 0.0 0.00 0.01 0.01 63 1029.1
20260510030001 65 270 0.0 0.0 0.00 0.01 0.01 62 1029.2
20260510024559 65 270 0.0 0.0 0.00 0.01 0.01 62 1029.3
20260510023057 65 257 0.0 0.0 0.00 0.01 0.01 62 1029.3
20260510021557 65 332 0.0 0.0 0.00 0.01 0.01 62 1029.5
20260510020054 64 348 0.0 0.0 0.00 0.01 0.01 60 1029.6
20260510014558 64 298 0.0 0.0 0.00 0.01 0.01 62 1029.8
20260510013047 63 246 0.0 0.0 0.00 0.01 0.01 63 1030.0
20260510011544 62 274 0.0 0.0 0.00 0.01 0.01 64 1029.9
20260510010040 62 11 0.0 0.0 0.00 0.01 0.01 66 1029.9
20260510004540 61 89 0.0 0.0 0.00 0.01 0.01 69 1029.9
20260510003037 59 88 0.0 0.0 0.00 0.01 0.01 70 1029.9
20260510001528 57 88 0.0 0.0 0.00 0.01 0.01 72 1029.9
20260510000024 57 89 0.0 0.0 0.00 0.01 0.01 72 1029.8
20260509234529 55 89 0.0 0.0 0.00 0.01 0.01 78 1029.6
20260509233014 53 89 0.0 0.0 0.00 0.01 0.01 80 1029.6
20260509231513 52 89 0.0 0.0 0.00 0.01 0.01 85 1029.5
20260509230016 49 89 0.0 0.0 0.00 0.01 0.01 93 1029.4
20260509224501 45 89 0.0 0.0 0.00 0.01 0.01 95 1029.2
20260509223101 42 89 0.0 0.0 0.00 0.01 0.01 94 1029.0
20260509221554 41 89 0.0 0.0 0.00 0.01 0.01 94 1028.8